軌道要素
Epoch 2022 Sept. 18.0 TT = JDT 2459840.5
T 2022 Sept. 26.22321 TT MPCW
q 1.8609794 (2000.0) P Q
n 0.14309570 Peri. 190.18434 -0.99836926 -0.02034067
a 3.6200813 Node 348.24913 +0.04904677 -0.78373857
e 0.4859288 Incl. 15.18327 -0.02921003 -0.62075770
P 6.89
From 121 observations 2002 Jan. 15-2009 May 3, mean residual 0".6.
|